You are listening to:
LKTB Gnd/Twr/Radar - Brno, Czech Republic

LKTB 171930Z 34004KT 310V020 CAVOK 22/12 Q1021 NOSIG

If stream doesn't start automatically press the play button
If stream stops then reload player then press play